Change the Weather History Date:

Wednesday, December 12, 2012

  Actual Average Record
Temperature  
Mean Temperature 44 °F -  
Max Temperature 48 °F 58 °F 79 °F (2007)
Min Temperature 41 °F 36 °F 29 °F (2014)
Degree Days  
Heating Degree Days 20    
Moisture  
Dew Point 41 °F    
Average Humidity 88    
Maximum Humidity 94    
Minimum Humidity 71    
Precipitation  
Precipitation 0.34 in - - ()
Sea Level Pressure  
Sea Level Pressure 30.18 in    
Wind  
Wind Speed 4 mph (North)    
Max Wind Speed 10 mph    
Max Gust Speed -    
Visibility 8 miles    
Events Rain    
Averages and records for this station are not official NWS values.
T = Trace of Precipitation, MM = Missing Value Source: NWS Daily Summary

Daily Weather History Graph

Daily Weather History Graph

Search for Another Location

Airport or City:

Trip Planner

Search our weather history database for the weather conditions in past years. The results will help you decide how hot, cold, wet, or windy it might be!

Date:

Astronomy

Dec. 12, 2012 Rise Set
Actual Time 7:27 AM EST 5:29 PM EST
Civil Twilight 7:00 AM EST 5:56 PM EST
Nautical Twilight 6:29 AM EST 6:27 PM EST
Astronomical Twilight 5:59 AM EST 6:57 PM EST
Moon 6:31 AM EST (12/12) 5:04 PM EST (12/12)
Length of Visible Light 10h 56m
Length of Day
10h 02m
Waning Crescent, 1% of the Moon is Illuminated
Dec 12
Waning Crescent
Dec 13
New
Dec 20
First Quarter
Dec 28
Full
Jan 4
Last Quarter

Hourly Weather History & Observations

Time (EST) Temp. Windchill Dew Point Humidity Pressure Visibility Wind Dir Wind Speed Gust Speed Precip Events Conditions
12:55 AM 44.6 °F - 35.6 °F 71% 30.15 in 10.0 mi Calm Calm - N/A   Clear
1:56 AM 44.6 °F 40.2 °F 35.6 °F 71% 30.17 in 10.0 mi NNW 8.1 mph - N/A   Clear
2:38 AM 44.6 °F 40.7 °F 35.6 °F 71% 30.16 in 10.0 mi NW 6.9 mph - N/A Rain Light Rain Showers
2:56 AM 42.8 °F 40.1 °F 35.6 °F 76% 30.15 in 10.0 mi North 4.6 mph - N/A Rain Light Rain Showers
3:13 AM 42.8 °F 38.6 °F 37.4 °F 81% 30.16 in 5.0 mi NNW 6.9 mph - N/A Rain Light Rain
3:27 AM 42.8 °F - 37.4 °F 81% 30.15 in 3.0 mi NNE 2.3 mph - N/A Rain Light Rain
3:56 AM 41.0 °F - 39.2 °F 93% 30.13 in 4.0 mi Variable 2.3 mph - N/A Rain Light Rain
4:32 AM 41.0 °F - 39.2 °F 93% 30.13 in 4.0 mi ENE 2.3 mph - N/A   Overcast
4:55 AM 41.0 °F 39.0 °F 39.2 °F 93% 30.09 in 6.0 mi NNE 3.5 mph - N/A   Overcast
5:55 AM 41.0 °F 38.0 °F 37.4 °F 87% 30.12 in 5.0 mi NNE 4.6 mph - N/A   Overcast
6:57 AM 42.8 °F 40.1 °F 37.4 °F 81% 30.14 in 4.0 mi North 4.6 mph - N/A Rain Light Rain Showers
7:39 AM 42.8 °F - 39.2 °F 87% 30.14 in 10.0 mi North 2.3 mph - N/A   Overcast
7:57 AM 42.8 °F - 39.2 °F 87% 30.17 in 10.0 mi Calm Calm - N/A   Overcast
8:55 AM 42.8 °F - 39.2 °F 87% 30.19 in 10.0 mi Calm Calm - N/A   Overcast
9:33 AM 42.8 °F 41.1 °F 39.2 °F 87% 30.21 in 10.0 mi NNW 3.5 mph - N/A Rain Light Rain
9:56 AM 44.1 °F 41.5 °F 40.5 °F 87% 30.25 in 10.0 mi NNW 4.6 mph - 0.00 in   Overcast
10:55 AM 44.6 °F 40.7 °F 42.8 °F 93% 30.20 in 10.0 mi NNW 6.9 mph - 0.01 in   Mostly Cloudy
11:04 AM 44.6 °F 42.2 °F 42.8 °F 93% 30.19 in 10.0 mi North 4.6 mph - N/A Rain Light Rain
11:55 AM 46.2 °F - 43.2 °F 89% 30.22 in 7.0 mi NE 2.3 mph - 0.01 in Rain Light Rain
12:59 PM 47.8 °F - 44.1 °F 87% 30.19 in 10.0 mi East 3.5 mph - N/A Rain Light Rain
1:22 PM 48.2 °F - 44.6 °F 87% 30.17 in 10.0 mi Calm Calm - N/A   Overcast
1:55 PM 47.8 °F - 44.2 °F 87% 30.14 in 10.0 mi East 4.6 mph - 0.00 in   Overcast
2:20 PM 48.2 °F - 44.6 °F 87% 30.17 in 10.0 mi North 6.9 mph - N/A   Overcast
2:45 PM 48.2 °F - 44.6 °F 87% 30.15 in 10.0 mi NNE 6.9 mph - N/A   Overcast
2:55 PM 48.2 °F - 44.6 °F 87% 30.17 in 10.0 mi North 5.8 mph - N/A   Overcast
3:20 PM 48.2 °F - 46.4 °F 93% 30.16 in 10.0 mi NNE 5.8 mph - N/A Rain Light Rain
3:55 PM 47.3 °F - 43.5 °F 87% 30.16 in 10.0 mi NNE 5.8 mph - 0.00 in   Overcast
4:08 PM 46.4 °F 42.4 °F 42.8 °F 87% 30.17 in 10.0 mi NNE 8.1 mph - N/A   Overcast
4:30 PM 46.4 °F 42.9 °F 42.8 °F 87% 30.17 in 10.0 mi NNE 6.9 mph - N/A Rain Light Rain
4:46 PM 46.4 °F 42.9 °F 42.8 °F 87% 30.18 in 10.0 mi North 6.9 mph - N/A Rain Light Rain
4:55 PM 46.8 °F - 42.6 °F 85% 30.18 in 10.0 mi North 6.9 mph - 0.00 in   Overcast
5:23 PM 46.4 °F 44.3 °F 42.8 °F 87% 30.17 in 10.0 mi NNE 4.6 mph - N/A   Overcast
5:27 PM 46.4 °F 42.4 °F 42.8 °F 87% 30.17 in 10.0 mi NNE 8.1 mph - N/A Rain Light Rain
5:55 PM 46.4 °F 42.9 °F 42.3 °F 85% 30.17 in 10.0 mi NNE 6.9 mph - 0.00 in   Overcast
6:55 PM 46.4 °F 41.5 °F 42.4 °F 86% 30.17 in 4.0 mi NNE 10.4 mph - 0.09 in Rain Heavy Rain
7:53 PM 44.6 °F - 42.8 °F 93% 30.20 in 7.0 mi NW 2.3 mph - N/A Rain Light Rain
7:55 PM 45.1 °F 42.8 °F 43.3 °F 93% 30.22 in 4.0 mi NW 4.6 mph - 0.13 in Rain Light Rain
8:24 PM 44.6 °F 41.4 °F 42.8 °F 93% 30.22 in 4.0 mi North 5.8 mph - N/A Rain Rain
8:55 PM 45.3 °F 42.3 °F 43.7 °F 94% 30.23 in 9.0 mi North 5.8 mph - 0.10 in Rain Light Rain
9:24 PM 44.6 °F 41.4 °F 42.8 °F 93% 30.23 in 10.0 mi North 5.8 mph - N/A   Overcast
9:34 PM 44.6 °F 41.4 °F 42.8 °F 93% 30.23 in 10.0 mi North 5.8 mph - N/A   Overcast
9:55 PM 45.3 °F 40.6 °F 43.7 °F 94% 30.24 in 9.0 mi North 9.2 mph - 0.00 in   Overcast
10:18 PM 44.6 °F 40.7 °F 42.8 °F 93% 30.24 in 7.0 mi North 6.9 mph - N/A   Overcast
10:53 PM 44.6 °F 40.7 °F 42.8 °F 93% 30.24 in 6.0 mi NNE 6.9 mph - N/A   Overcast
10:55 PM 44.6 °F 42.2 °F 42.8 °F 93% 30.24 in 8.0 mi Variable 4.6 mph - N/A   Overcast
11:55 PM 44.6 °F 41.4 °F 42.8 °F 93% 30.23 in 8.0 mi Variable 5.8 mph - N/A   Overcast